Grand Rapids, MI

10:58 PM EDT on October 23, 2019 (GMT -0400)
Gerald R. Ford International

Weather History for KGRR - September, 2019

Change the Weather History Date:

Sunday, September 22, 2019

  Actual Average Record
Temperature  
Mean Temperature 74 °F 60 °F  
Max Temperature 80 °F 70 °F 95 °F (2017)
Min Temperature 68 °F 50 °F 33 °F (1976)
Degree Days  
Heating Degree Days 0 6  
Month to date heating degree days 20 71  
Since 1 July heating degree days 28 91  
Cooling Degree Days 9 1  
Month to date cooling degree days 82 59  
Year to date cooling degree days 724 684  
Growing Degree Days 24 (Base 50)    
Moisture  
Dew Point 66 °F    
Average Humidity 84    
Maximum Humidity 93    
Minimum Humidity 58    
Precipitation  
Precipitation 2.56 in 0.15 in 3.14 in (1988)
Month to date precipitation 4.78 3.16  
Year to date precipitation 35.04 27.88  
Snow  
Snow 0.00 in 0.00 in T in (1995)
Month to date snowfall 0.0 0.0  
Since 1 July snowfall 0.0 0.0  
Since 1 September snowfall 0.0 0.0  
Snow Depth 0.00 in    
Sea Level Pressure  
Sea Level Pressure 29.90 in    
Wind  
Wind Speed 12 mph ()    
Max Wind Speed 22 mph    
Max Gust Speed 33 mph    
Visibility 6.4 miles    
Events Rain    
T = Trace of Precipitation, MM = Missing Value Source: Averaged Metar Reports

Daily Weather History Graph

Daily Weather History Graph

Search for Another Location

Airport or City:

Astronomy

Sep. 22, 2019 Rise Set
Actual Time 7:29 AM EDT 7:39 PM EDT
Civil Twilight 7:00 AM EDT 8:08 PM EDT
Nautical Twilight 6:27 AM EDT 8:41 PM EDT
Astronomical Twilight 5:53 AM EDT 9:14 PM EDT
Moon 12:09 AM EDT (9/22) 3:43 PM EDT (9/22)
Length of Visible Light 13h 07m
Length of Day
12h 10m
Last Quarter, 44% of the Moon is Illuminated
Sep 22
Last Quarter
Sep 28
New
Oct 5
First Quarter
Oct 13
Full
Oct 21
Last Quarter

Hourly Weather History & Observations

Time (EDT) Temp. Dew Point Humidity Pressure Visibility Wind Dir Wind Speed Gust Speed Precip Events Conditions
12:53 AM 75.9 °F 63.0 °F 64% 30.00 in 10.0 mi SW 15.0 mph - N/A   Mostly Cloudy
1:53 AM 75.0 °F 64.0 °F 69% 30.01 in 10.0 mi SW 12.7 mph - N/A   Mostly Cloudy
3:03 AM 71.1 °F 66.0 °F 84% 30.02 in 1.8 mi WSW 17.3 mph 23.0 mph 0.01 in Rain Heavy Rain
3:34 AM 69.1 °F 66.0 °F 90% 30.01 in 3.0 mi SSW 16.1 mph 25.3 mph 0.46 in Rain Light Rain
3:53 AM 70.0 °F 66.0 °F 87% 29.99 in 7.0 mi SSW 15.0 mph 24.2 mph 0.50 in Rain Light Rain
4:53 AM 70.0 °F 64.9 °F 84% 29.99 in 7.0 mi SSW 11.5 mph - 0.00 in Rain Light Rain
5:35 AM 69.1 °F 66.0 °F 90% 29.99 in 1.8 mi SSW 11.5 mph 23.0 mph 0.06 in Rain Heavy Rain
5:43 AM 69.1 °F 66.0 °F 90% 29.99 in 3.0 mi SSW 13.8 mph - 0.13 in Rain Light Rain
5:53 AM 70.0 °F 66.0 °F 87% 29.98 in 7.0 mi SSW 12.7 mph - 0.14 in Rain Light Rain
6:53 AM 70.0 °F 66.0 °F 87% 29.97 in 10.0 mi SSW 10.4 mph - 0.01 in   Overcast
7:53 AM 70.0 °F 66.0 °F 87% 29.96 in 8.0 mi SSW 11.5 mph - 0.00 in Rain Light Rain
8:51 AM 71.6 °F 66.2 °F 83% 29.97 in 10.0 mi SSW 10.4 mph - 0.00 in Rain Light Rain
8:53 AM 70.0 °F 66.0 °F 87% 29.96 in 10.0 mi SSW 12.7 mph 19.6 mph 0.00 in Rain Light Rain
9:41 AM 70.0 °F 66.0 °F 87% 29.97 in 4.0 mi South 11.5 mph - 0.04 in Rain Light Rain
9:53 AM 69.1 °F 66.0 °F 90% 29.96 in 5.0 mi SSW 12.7 mph - 0.04 in Rain Light Rain
10:02 AM 69.1 °F 66.0 °F 90% 29.97 in 2.5 mi SSW 17.3 mph 24.2 mph 0.02 in Rain Light Rain
10:22 AM 69.1 °F 64.9 °F 87% 29.96 in 4.0 mi South 15.0 mph - 0.07 in Rain Light Rain
10:53 AM 70.0 °F 66.0 °F 87% 29.93 in 10.0 mi South 12.7 mph - 0.08 in   Mostly Cloudy
11:53 AM 73.9 °F 64.9 °F 73% 29.91 in 10.0 mi SSW 12.7 mph - N/A   Overcast
12:53 PM 77.0 °F 64.0 °F 64% 29.89 in 10.0 mi SSW 16.1 mph 25.3 mph N/A   Overcast
1:53 PM 79.0 °F 63.0 °F 58% 29.87 in 10.0 mi SSW 17.3 mph 33.4 mph N/A   Overcast
2:53 PM 79.0 °F 63.0 °F 58% 29.86 in 10.0 mi SW 17.3 mph 31.1 mph N/A   Overcast
3:53 PM 78.1 °F 64.0 °F 62% 29.85 in 10.0 mi SW 13.8 mph - N/A   Overcast
4:53 PM 77.0 °F 64.9 °F 66% 29.84 in 10.0 mi SW 18.4 mph 25.3 mph 0.00 in   Overcast
5:53 PM 71.1 °F 66.0 °F 84% 29.85 in 1.0 mi WSW 20.7 mph 26.5 mph 0.01 in Rain Heavy Rain
6:08 PM 71.1 °F 66.9 °F 87% 29.85 in 3.0 mi SW 12.7 mph 24.2 mph 0.15 in Rain Light Rain
6:53 PM 71.1 °F 66.9 °F 87% 29.84 in 9.0 mi SW 17.3 mph 25.3 mph 0.16 in Rain Light Rain
7:46 PM 70.0 °F 66.9 °F 90% 29.84 in 7.0 mi SSW 13.8 mph - 0.01 in Rain Light Rain
7:53 PM 70.0 °F 66.9 °F 90% 29.83 in 6.0 mi SSW 12.7 mph - 0.02 in Rain Light Rain
8:26 PM 70.0 °F 66.9 °F 90% 29.83 in 10.0 mi South 8.1 mph - 0.02 in Rain Light Rain
8:53 PM 70.0 °F 66.9 °F 90% 29.80 in 10.0 mi South 5.8 mph - 0.03 in Rain Light Rain
9:09 PM 69.1 °F 66.9 °F 93% 29.80 in 1.5 mi South 5.8 mph - 0.03 in Rain Rain
9:53 PM 69.1 °F 66.9 °F 93% 29.79 in 1.5 mi SSW 6.9 mph - 0.57 in Rain Heavy Rain
10:23 PM 69.1 °F 66.9 °F 93% 29.78 in 1.0 mi West 3.5 mph - 0.40 in Rain Heavy Rain
10:53 PM 69.1 °F 66.9 °F 93% 29.78 in 1.2 mi WSW 15.0 mph 19.6 mph 0.91 in Rain Heavy Rain
10:56 PM 69.1 °F 66.9 °F 93% 29.79 in 2.0 mi WSW 13.8 mph - 0.02 in Rain Heavy Rain
11:02 PM 70.0 °F 66.9 °F 90% 29.79 in 5.0 mi SW 16.1 mph - 0.05 in Rain Light Rain
11:40 PM 70.0 °F 66.9 °F 90% 29.79 in 6.0 mi West 12.7 mph - 0.05 in Rain Light Rain
11:53 PM 70.0 °F 66.9 °F 90% 29.78 in 10.0 mi West 12.7 mph - 0.06 in   Overcast